Regional Weather Roundup
Issued by NWS

Home | Current Version | Previous Version | Text Only | Print | Product List | Glossary On
Versions: 1 2 3 4 5 6 7 8 9 10 11 12 13 14 15 16 17 18 19 20 21 22 23 24 25 26 27 28 29 30 31 32 33 34 35 36 37 38 39 40 41 42 43 44 45 46 47 48 49 50
000
ASUS43 KDTX 240810
RWRMI
MICHIGAN HOURLY REGIONAL WEATHER ROUNDUP
NATIONAL WEATHER SERVICE DETROIT/PONTIAC MI
ISSUED BY NATIONAL WEATHER SERVICE GRAND RAPIDS MI
400 AM EDT THU AUG 24 2017

NOTE: "FAIR" INDICATES FEW OR NO CLOUDS BELOW 12,000 FEET WITH NO
SIGNIFICANT WEATHER AND/OR OBSTRUCTION TO VISIBILITY.

MIZ047>049-052>055-059>063-066>070-074>076-081>083-240900-
SOUTHEAST LOWER MICHIGAN

CITY           SKY/WX    TMP DP  RH WIND       PRES   REMARKS
ADRIAN         CLEAR     54  49  83 N6        30.05R
ALMA           PTCLDY    46  46  97 CALM      30.07S
ANN ARBOR      CLEAR     55  49  80 NW6       30.03R
BAD AXE        CLEAR     46  45  95 CALM      30.04S
DETROIT CITY   CLEAR     58  52  80 N7        30.02R
DETROIT        PTCLDY    57  49  74 N6        30.03R
FLINT          CLEAR     49  46  90 CALM      30.05R
GROSSE ILE     CLEAR     57  49  74 N6        30.01R
HILLSDALE      CLEAR     52  46  82 N3        30.05R
HOWELL         CLEAR     52  47  84 NW3       30.05R

CITY           SKY/WX    TMP DP  RH WIND       PRES   REMARKS
JACKSON        CLEAR     50  48  93 CALM      30.05R
LANSING        PTCLDY    47  45  93 CALM      30.07R
MASON          CLEAR     50  48  91 CALM      30.06R
MONROE         CLEAR     53  50  88 CALM      30.02R
MT. CLEMENS    PTCLDY    55  54  96 N6        30.01R
PONTIAC        CLEAR     53  50  89 N3        30.02S
PORT HOPE        N/A     60  51  72 VRB3      30.01R
PORT HURON     CLOUDY    52  50  93 CALM      30.03R
TRI CITIES     PTCLDY    51  49  92 NW7       30.06R
YPSILANTI      CLEAR     54  50  86 N6        30.03R
$$
MIZ043>046-050>051-056>058-064>065-071>073-077>080-240900-
SOUTHWEST LOWER MICHIGAN

CITY           SKY/WX    TMP DP  RH WIND       PRES   REMARKS
BATTLE CREEK   CLEAR     53  50  89 CALM      30.06R
BENTON HARBOR  CLEAR     51  49  92 CALM      30.05R
BIG RAPIDS     PTCLDY    45  43  93 CALM      30.07R
COLDWATER      CLEAR     48  48 100 CALM      30.06R
HOLLAND        CLOUDY    57  52  83 CALM      30.06R
GRAND RAPIDS   PTCLDY    51  50  96 E3        30.06R
KALAMAZOO      CLEAR     52  48  86 CALM      30.06R
MARSHALL       CLEAR     51  49  94 CALM      30.06R
MOUNT PLEASANT MOCLDY    50  48  92 CALM      30.06R
MUSKEGON       PTCLDY    56  50  80 NE3       30.06R
STURGIS        CLEAR     51  51  97 NE5       30.05R
$$
MIZ016>042-240900-
NORTHERN LOWER MICHIGAN

CITY           SKY/WX    TMP DP  RH WIND       PRES   REMARKS
ALPENA         CLOUDY    51  49  92 CALM      30.04S
BEAVER ISLAND  PTCLDY    54  49  85 N3        30.07R
BELLAIRE       CLOUDY    44  43  95 CALM      30.07R
CADILLAC       CLEAR     44  42  89 CALM      30.06R
CHARLEVOIX     MOCLDY    56  49  76 N6        30.08R
GAYLORD        CLEAR     44  42  93 CALM      30.06R
HOUGHTON LAKE  CLEAR     43  41  93 CALM      30.07R FOG
MANISTEE       PTCLDY    47  46  97 CALM      30.08R
OSCODA         PTCLDY    48  46  93 W6        30.03S
PELLSTON       PTCLDY    46  45  96 CALM      30.06R
TRAVERSE CITY  PTCLDY    57  46  66 N7        30.05R
LUDINGTON      CLOUDY    52  49  90 CALM      30.07S
$$
MIZ007>008-015-240900-
EASTERN UPPER MICHIGAN

CITY           SKY/WX    TMP DP  RH WIND       PRES   REMARKS
MACKINAC ISLAN CLOUDY    52  52 100 N5        30.04R
NEWBERRY       CLEAR     46  45  97 W6        30.06S
S. S. MARIE    MOCLDY    54  47  77 CALM      30.03S
$$
MIZ004>006-011>014-085-240900-
CENTRAL UPPER MICHIGAN

CITY           SKY/WX    TMP DP  RH WIND       PRES   REMARKS
MANISTIQUE     PTCLDY    43  38  81 NW5       30.07S
SAWYER-GWINN     N/A    N/A N/A N/A MISG        N/A
$$
MIZ001>003-009>011-084-240900-
WESTERN UPPER MICHIGAN

CITY           SKY/WX    TMP DP  RH WIND       PRES   REMARKS
IRON MOUNTAIN  PTCLDY    45  40  82 CALM      30.11R
HOUGHTON       CLEAR     40  38  93 NW5       30.10R
COPPER HARBOR    N/A     51  45  79 W5        30.09R
$$

ABBREVIATIONS USED IN REMARKS
   TC - TEMPERATURE IN CELSIUS
  WCI - WIND CHILL INDEX
   HX - HEAT INDEX
  VSB - VISIBILITY





USA.gov is the U.S. government's official web portal to all federal, state and local government web resources and services.